TimeCST,TemperatureF,Dew PointF,Humidity,Sea Level PressureIn,VisibilityMPH,Wind Direction,Wind SpeedMPH,Gust SpeedMPH,PrecipitationIn,Events,Conditions,WindDirDegrees,DateUTC
12:53 AM,32.0,32.0,100,29.93,1.0,Calm,Calm,-,N/A,,Mist,0,2013-02-22 06:53:00
1:13 AM,33.8,33.8,100,29.90,3.0,Calm,Calm,-,N/A,,Overcast,0,2013-02-22 07:13:00
1:27 AM,33.8,33.8,100,29.90,7.0,Calm,Calm,-,N/A,,Overcast,0,2013-02-22 07:27:00
1:53 AM,33.1,33.1,100,29.94,7.0,Calm,Calm,-,N/A,,Overcast,0,2013-02-22 07:53:00
2:25 AM,33.8,33.8,100,29.90,9.0,Calm,Calm,-,N/A,,Overcast,0,2013-02-22 08:25:00
2:53 AM,33.1,33.1,100,29.93,8.0,Calm,Calm,-,N/A,,Overcast,0,2013-02-22 08:53:00
3:53 AM,34.0,34.0,100,29.94,4.0,Calm,Calm,-,N/A,,Overcast,0,2013-02-22 09:53:00
4:43 AM,33.8,32.0,93,29.95,9.0,Calm,Calm,-,N/A,,Scattered Clouds,0,2013-02-22 10:43:00
4:53 AM,33.1,32.0,96,29.98,8.0,Calm,Calm,-,N/A,,Clear,0,2013-02-22 10:53:00
5:23 AM,33.8,32.0,93,29.96,5.0,Calm,Calm,-,N/A,,Mostly Cloudy,0,2013-02-22 11:23:00
5:40 AM,33.8,32.0,93,29.96,5.0,NNW,3.5,-,N/A,,Mostly Cloudy,330,2013-02-22 11:40:00
5:53 AM,33.1,32.0,96,29.99,6.0,Calm,Calm,-,N/A,,Mostly Cloudy,0,2013-02-22 11:53:00
6:02 AM,32.0,30.2,93,29.96,6.0,Calm,Calm,-,N/A,,Scattered Clouds,0,2013-02-22 12:02:00
6:24 AM,32.0,30.2,93,29.97,10.0,Calm,Calm,-,N/A,,Mostly Cloudy,0,2013-02-22 12:24:00
6:53 AM,32.0,30.9,96,30.04,10.0,Calm,Calm,-,N/A,,Mostly Cloudy,0,2013-02-22 12:53:00
7:31 AM,32.0,28.4,87,30.02,10.0,NNW,3.5,-,N/A,,Scattered Clouds,330,2013-02-22 13:31:00
7:53 AM,32.0,28.0,85,30.07,10.0,NW,5.8,-,N/A,,Clear,320,2013-02-22 13:53:00
8:53 AM,34.0,28.0,79,30.10,10.0,Variable,5.8,-,N/A,,Clear,0,2013-02-22 14:53:00
9:53 AM,35.1,24.1,64,30.11,10.0,Variable,4.6,-,N/A,,Clear,0,2013-02-22 15:53:00
10:53 AM,37.9,26.1,62,30.11,10.0,Variable,5.8,-,N/A,,Clear,0,2013-02-22 16:53:00
11:53 AM,39.0,27.0,62,30.10,10.0,North,4.6,-,N/A,,Clear,350,2013-02-22 17:53:00
12:53 PM,41.0,28.9,62,30.07,10.0,NNW,5.8,16.1,N/A,,Clear,340,2013-02-22 18:53:00
1:53 PM,42.1,28.9,60,30.05,10.0,NNW,10.4,-,N/A,,Clear,340,2013-02-22 19:53:00
2:53 PM,43.0,28.9,58,30.03,10.0,NNW,5.8,-,N/A,,Clear,330,2013-02-22 20:53:00
3:53 PM,43.0,30.0,60,30.03,10.0,NNW,6.9,-,N/A,,Clear,340,2013-02-22 21:53:00
4:53 PM,42.1,28.0,58,30.02,10.0,North,5.8,-,N/A,,Clear,350,2013-02-22 22:53:00
5:53 PM,39.0,27.0,62,30.05,10.0,Calm,Calm,-,N/A,,Clear,0,2013-02-22 23:53:00
6:53 PM,36.0,28.0,73,30.08,10.0,Calm,Calm,-,N/A,,Clear,0,2013-02-23 00:53:00
7:53 PM,33.1,28.0,82,30.09,10.0,Calm,Calm,-,N/A,,Clear,0,2013-02-23 01:53:00
8:53 PM,32.0,28.9,88,30.11,10.0,Calm,Calm,-,N/A,,Clear,0,2013-02-23 02:53:00
9:53 PM,30.0,28.0,92,30.12,10.0,Calm,Calm,-,N/A,,Clear,0,2013-02-23 03:53:00
10:53 PM,30.0,28.0,92,30.10,10.0,Calm,Calm,-,N/A,,Clear,0,2013-02-23 04:53:00
11:53 PM,28.9,27.0,92,30.09,10.0,Calm,Calm,-,N/A,,Clear,0,2013-02-23 05:53:00